F8KGK-5 Weather Reports


time (UTC)temp
C
wind
direction
speed
KPH
gust
KPH
rain 1hr
cm
rain 24hr
cm
rain mn
cm
humidity
%
barometer
mb
20260502220808 15 205 9.7 20.9 0.00 0.00 0.00 79 1005.9
20260502210840 15 199 4.8 8.0 0.00 0.00 0.00 78 1006.1
20260502203840 16 174 4.8 8.0 0.00 0.00 0.00 78 1006.4
20260502200839 15 232 3.2 4.8 0.00 0.00 0.00 79 1006.7
20260502193839 15 222 4.8 8.0 0.00 0.00 0.00 77 1006.6
20260502190840 15 166 3.2 8.0 0.00 0.00 0.00 76 1006.4
20260502183838 16 235 8.0 11.3 0.00 0.00 0.00 75 1006.3
20260502180839 16 242 6.4 14.5 0.00 0.00 0.00 74 1006.7
20260502163840 16 232 12.9 20.9 0.00 0.00 0.00 67 1007.2
20260502160838 20 198 9.7 19.3 0.00 0.00 0.00 52 1006.8
20260502150840 20 218 12.9 17.7 0.00 0.00 0.00 50 1007.7
20260502120838 28 159 11.3 9.7 0.00 0.00 0.00 45 1009.2
20260502113839 29 122 1.6 4.8 0.00 0.00 0.00 48 1009.8
20260502110839 27 15 3.2 3.2 0.00 0.00 0.00 53 1010.2
20260502103840 24 117 1.6 6.4 0.00 0.00 0.00 60 1010.4
20260502100838 23 92 3.2 4.8 0.00 0.00 0.00 63 1010.8
20260502090839 16 9 1.6 4.8 0.00 0.00 0.00 80 1011.8
20260502070838 15 8 1.6 3.2 0.00 0.00 0.00 87 1012.4
20260502063838 13 39 0.0 0.0 0.00 0.00 0.00 88 1012.2
20260502060735 13 22 0.0 0.0 0.00 0.00 0.00 89 1012.2
20260502053736 12 270 0.0 0.0 0.00 0.00 0.00 89 1012.3
20260502050735 12 294 0.0 0.0 0.00 0.00 0.00 89 1012.3
20260502043734 12 22 0.0 0.0 0.00 0.00 0.00 89 1012.2
20260502040734 12 292 0.0 0.0 0.00 0.00 0.00 88 1012.4
20260502033735 12 200 0.0 3.2 0.00 0.00 0.00 88 1012.8
20260502030734 13 216 0.0 0.0 0.00 0.00 0.00 88 1012.9
20260502025341 12 185 0.0 1.6 0.00 0.00 0.00 88 1012.9
20260502022341 12 246 0.0 4.8 0.00 0.00 0.00 87 1013.1
20260502015341 12 225 0.0 0.0 0.00 0.00 0.00 87 1013.1
20260502012340 13 338 0.0 0.0 0.00 0.00 0.00 87 1013.2
20260502005340 13 7 4.8 4.8 0.00 0.00 0.00 87 1013.2
20260502002342 13 4 3.2 6.4 0.00 0.00 0.00 87 1013.6
20260501235342 13 15 3.2 6.4 0.00 0.00 0.00 86 1013.9
20260501232341 13 5 4.8 4.8 0.00 0.00 0.00 85 1014.2
20260501225341 13 329 1.6 4.8 0.00 0.00 0.00 84 1014.6
20260501222340 14 278 0.0 3.2 0.00 0.00 0.00 85 1014.6